"TOA5","AWS1","CR1000","7964","CR1000.Std.14","CPU:AWS1_114.CR1","64363","TBL110"
"TIMESTAMP","RECORD","Wind_spd_WVc(1)","Wind_spd_WVc(2)","Air_Temp_Avg","Humidity_Avg","SW_upper_Wm2_Avg","Rain_Tot","Press_Avg","Issui_Tot","Depth_cm","SR50A_Raw","Quality","Ground_Temp_Avg(1)","Ground_Temp_Avg(2)","SW_lower_Wm2_Avg","Albedo_Avg","SWC_per(1)","SWC_per(2)","Period(1)","Period(2)"
"TS","RN","","","","","","","","","","","","","","","","","","",""
"","","WVc","WVc","Avg","Avg","Avg","Tot","Avg","Tot","Smp","Smp","Smp","Avg","Avg","Avg","Avg","Smp","Smp","Smp","Smp"
"2017-05-02 00:00:00",286189,0.253,206.6,1.177,81.6,0,0,868.0961,0,-4.824,3.221,190,5.924,5.578,0.1403088,0,52.38,60.38,33.88,35.77
"2017-05-02 00:10:00",286190,0.327,150.9,1.08,81.3,0,0,868.0961,0,-4.97,3.225,190,5.937,5.555,0.2692412,0,52.38,60.38,33.88,35.77
"2017-05-02 00:20:00",286191,0.376,59.95,1.185,78.65,0,0,868.0983,0,-4.674,3.219,189,5.902,5.525,0.5422746,0,52.38,60.38,33.88,35.77
"2017-05-02 00:30:00",286192,0.568,184.9,1.158,78.37,0,0,868.1552,0,-4.622,3.22,190,5.908,5.527,0.3943816,0,52.32,60.38,33.87,35.77
"2017-05-02 00:40:00",286193,0.384,154.1,0.989,78.99,0,0,868.1088,0,-4.522,3.219,190,5.856,5.557,0.3071629,0,52.38,60.38,33.88,35.77
"2017-05-02 00:50:00",286194,0.573,189.1,1.175,76.22,0,0,868.0772,0,-4.581,3.218,186,5.833,5.541,0.6408931,0,52.32,60.38,33.87,35.77
"2017-05-02 01:00:00",286195,0.307,189,1.188,75.8,0,0,867.9697,0,-4.579,3.221,191,5.789,5.516,0.420948,0,52.38,60.38,33.88,35.77
"2017-05-02 01:10:00",286196,0.39,230.5,1.098,75.15,0,0,868.0477,0,-5.065,3.223,186,5.771,5.508,0.6219661,0,52.38,60.38,33.88,35.77
"2017-05-02 01:20:00",286197,0.055,145.8,0.923,76.12,0,0,868.0983,0,-4.889,3.225,192,5.707,5.513,0.2541034,0,52.38,60.38,33.88,35.77
"2017-05-02 01:30:00",286198,0.254,199.4,0.68,76.79,0,0,868.3006,0,-4.147,3.215,189,5.727,5.474,0.4437528,0,52.38,60.33,33.88,35.75
"2017-05-02 01:40:00",286199,0.128,260.1,0.994,74.12,0,0,868.3616,0,-4.782,3.221,182,5.735,5.457,0.7775343,0,52.38,60.38,33.88,35.77
"2017-05-02 01:50:00",286200,0.491,189.2,0.841,75.11,0,0,868.349,0,-4.709,3.224,177,5.669,5.498,0.5348217,0,52.32,60.38,33.87,35.77
"2017-05-02 02:00:00",286201,0.322,183.9,0.442,77.7,0,0,868.349,0,-4.792,3.224,190,5.693,5.519,0.3527783,0,52.32,60.38,33.87,35.77
"2017-05-02 02:10:00",286202,0.497,162.3,0.669,76.54,0,0,868.2548,0,-4.442,3.22,191,5.667,5.523,0.5500337,0,52.32,60.38,33.87,35.77
"2017-05-02 02:20:00",286203,0.449,201.1,0.983,75.03,0,0,868.2375,0,-4.696,3.221,190,5.646,5.525,0.7359149,0,52.32,60.33,33.87,35.75
"2017-05-02 02:30:00",286204,0.254,264.7,1.052,74.14,0,0,868.1643,0,-4.576,3.217,182,5.63,5.53,0.5310771,0,52.32,60.33,33.87,35.75
"2017-05-02 02:40:00",286205,0.532,349.6,1.8,66.26,0,0,868.1703,0,-5.429,3.225,179,5.631,5.529,0.8800736,0,52.38,60.33,33.88,35.75
"2017-05-02 02:50:00",286206,0.028,187.5,0.698,73.94,0,0,868.3315,0,-4.642,3.223,177,5.538,5.53,0.01138027,0,52.38,60.33,33.88,35.75
"2017-05-02 03:00:00",286207,0,0,0.272,75.59,0,0,868.462,0,-4.559,3.225,182,5.521,5.485,0,0,52.32,60.33,33.87,35.75
"2017-05-02 03:10:00",286208,0.255,184.3,-0.51,83,0,0,868.5285,0,-4.478,3.228,190,5.465,5.484,0.01138012,0,52.32,60.33,33.87,35.75
"2017-05-02 03:20:00",286209,0.168,185,-0.328,79.52,0,0,868.7204,0,-4.676,3.231,190,5.476,5.506,0.4248596,0,52.32,60.33,33.87,35.75
"2017-05-02 03:30:00",286210,0.286,175,-0.902,82.4,0,0,868.9284,0,-4.577,3.23,187,5.454,5.455,0.1479433,0,52.32,60.33,33.87,35.75
"2017-05-02 03:40:00",286211,0.402,189,-0.615,76.62,0,0,868.9407,0,-4.605,3.229,174,5.346,5.453,0.5348728,0,52.32,60.38,33.87,35.77
"2017-05-02 03:50:00",286212,0.153,180.1,-0.502,74.48,0,0,868.9457,0,-4.775,3.233,178,5.378,5.479,0.5803942,0,52.32,60.33,33.87,35.75
"2017-05-02 04:00:00",286213,0.343,192.8,-0.804,77.6,0,0,868.9765,0,-4.882,3.231,173,5.328,5.485,0.364169,0,52.32,60.33,33.87,35.75
"2017-05-02 04:10:00",286214,0.183,205.9,-0.183,72.43,0,0,869.0738,0,-4.51,3.226,178,5.264,5.482,0.9787042,0,52.32,60.33,33.87,35.75
"2017-05-02 04:20:00",286215,0.004,177.1,0.055,72.5,0,0,869.2003,0,-5.035,3.231,178,5.305,5.455,0.8345539,0,52.38,60.38,33.88,35.77
"2017-05-02 04:30:00",286216,0.079,194.9,-0.603,76.98,0,0,869.3416,0,-4.752,3.232,194,5.228,5.367,0.2503662,0,52.32,60.38,33.87,35.77
"2017-05-02 04:40:00",286217,0.271,185.7,-0.915,79.82,0,0,869.3395,0,-4.227,3.227,187,5.187,5.355,0.2883005,0,52.32,60.38,33.87,35.77
"2017-05-02 04:50:00",286218,0.158,182.4,-0.433,75.01,0,0,869.3669,0,-4.384,3.225,181,5.209,5.385,1.130441,0,52.32,60.33,33.87,35.75
"2017-05-02 05:00:00",286219,0.111,108,-0.287,73.98,0,0,869.4492,0,-4.674,3.232,178,5.066,5.397,1.278385,0,52.32,60.38,33.87,35.77
"2017-05-02 05:10:00",286220,0.341,185.8,-1.01,79.02,4.150701,0,869.4744,0,-4.424,3.23,192,5.118,5.398,1.657728,0.685,52.32,60.38,33.87,35.77
"2017-05-02 05:20:00",286221,0.181,187,-0.687,76.21,14.96613,0,869.5862,0,-4.605,3.229,183,5.117,5.398,4.05138,0.276,52.32,60.33,33.87,35.75
"2017-05-02 05:30:00",286222,0.01,191.9,-0.469,74.96,26.62743,0,869.6579,0,-4.657,3.229,182,4.987,5.398,5.940506,0.224,52.32,60.38,33.87,35.77
"2017-05-02 05:40:00",286223,0.114,247.6,-0.275,73.41,38.86315,0,869.7064,0,-4.633,3.228,178,5.014,5.398,8.000338,0.206,52.32,60.38,33.87,35.77
"2017-05-02 05:50:00",286224,0.3,181.7,-0.358,73.76,50.74477,0,869.8392,0,-4.236,3.223,192,5.03,5.398,10.09431,0.199,52.32,60.38,33.87,35.77
"2017-05-02 06:00:00",286225,0.295,186.3,-0.029,71.67,73.61887,0,869.9593,0,-4.512,3.225,178,4.964,5.391,14.1419,0.195,52.32,60.38,33.87,35.77
"2017-05-02 06:10:00",286226,0.215,134.3,0.375,70.72,101.0056,0,870.1385,0,-4.643,3.223,178,4.959,5.381,21.26595,0.215,52.38,60.33,33.88,35.75
"2017-05-02 06:20:00",286227,0.058,129.2,0.907,70.31,127.8652,0,870.2123,0,-4.55,3.218,182,4.895,5.388,24.96834,0.205,52.38,60.38,33.88,35.77
"2017-05-02 06:30:00",286228,0.279,158.2,1.612,68.65,137.2564,0,870.2123,0,-4.529,3.214,178,4.889,5.357,28.5076,0.231,52.38,60.38,33.88,35.77
"2017-05-02 06:40:00",286229,0.071,85,2.251,63.62,142.5008,0,870.2711,0,-4.482,3.21,177,4.882,5.318,28.57209,0.208,52.32,60.33,33.87,35.75
"2017-05-02 06:50:00",286230,0.242,25.15,2.725,58.69,182.0276,0,870.4218,0,-4.431,3.207,177,4.872,5.31,28.86401,0.167,52.38,60.33,33.88,35.75
"2017-05-02 07:00:00",286231,0.408,352.8,2.932,60.56,120.7212,0,870.4893,0,-4.507,3.209,189,4.811,5.262,30.67832,0.256,52.32,60.33,33.87,35.75
"2017-05-02 07:10:00",286232,0.618,4.613,2.813,61.31,138.7584,0,870.6293,0,-4.542,3.208,176,4.767,5.247,31.82706,0.231,52.32,60.33,33.87,35.75
"2017-05-02 07:20:00",286233,0.24,14.36,3.139,62.36,146.5207,0,870.6263,0,-4.738,3.208,174,4.711,5.224,31.54042,0.216,52.32,60.33,33.87,35.75
"2017-05-02 07:30:00",286234,0.647,5.873,3.268,63.5,175.4481,0,870.7037,0,-4.535,3.206,176,4.696,5.213,33.38636,0.191,52.32,60.33,33.87,35.75
"2017-05-02 07:40:00",286235,0.33,320.2,3.683,64.63,208.4246,0,870.8742,0,-4.434,3.201,188,4.634,5.194,37.76599,0.184,52.32,60.27,33.87,35.74
"2017-05-02 07:50:00",286236,0.387,345.4,4.03,62.67,475.2214,0,870.8974,0,-4.534,3.202,174,4.639,5.182,43.96603,0.093,52.32,60.33,33.87,35.75
"2017-05-02 08:00:00",286237,0.427,67.49,4.351,61.05,555.0958,0,871.0386,0,-4.634,3.199,187,4.656,5.184,64.52316,0.116,52.38,60.33,33.88,35.75
"2017-05-02 08:10:00",286238,0.524,22.51,4.925,60.63,604.1563,0,871.0908,0,-4.724,3.197,189,4.595,5.194,81.61549,0.135,52.32,60.27,33.87,35.74
"2017-05-02 08:20:00",286239,0.517,18.93,5.338,60.25,543.4194,0,871.0517,0,-4.346,3.193,188,4.535,5.147,76.62366,0.141,52.32,60.33,33.87,35.75
"2017-05-02 08:30:00",286240,0.777,37.38,5.373,60.38,592.5603,0,871.2543,0,-4.534,3.192,184,4.506,5.112,86.5778,0.146,52.32,60.27,33.87,35.74
"2017-05-02 08:40:00",286241,0.605,6.893,5.546,59.8,520.786,0,871.2507,0,-4.859,3.197,179,4.492,5.1,77.57024,0.15,52.32,60.27,33.87,35.74
"2017-05-02 08:50:00",286242,0.646,26.7,5.314,61.18,481.7684,0,871.1796,0,-4.493,3.194,188,4.481,5.103,74.2006,0.157,52.32,60.27,33.87,35.74
"2017-05-02 09:00:00",286243,0.541,329.9,5.565,61.71,561.1877,0,871.2048,0,-4.239,3.19,190,4.442,5.071,79.90482,0.142,52.32,60.27,33.87,35.74
"2017-05-02 09:10:00",286244,0.395,344.3,5.949,61.21,638.6508,0,871.3275,0,-4.579,3.19,191,4.413,5.043,91.81155,0.144,52.32,60.27,33.87,35.74
"2017-05-02 09:20:00",286245,0.402,24.64,6.467,60.31,764.5755,0,871.4319,0,-4.873,3.189,190,4.392,5.008,109.8234,0.144,52.32,60.33,33.87,35.75
"2017-05-02 09:30:00",286246,0.392,54.23,7.083,59.39,857.8614,0,871.4506,0,-5.116,3.186,185,4.415,5.003,122.0772,0.142,52.38,60.33,33.88,35.75
"2017-05-02 09:40:00",286247,0.709,3.793,7.686,55.22,915.8881,0,871.4506,0,-4.261,3.181,188,4.472,5.005,130.0347,0.142,52.32,60.33,33.87,35.75
"2017-05-02 09:50:00",286248,0.358,32.79,8.16,55.52,932.162,0,871.4499,0,-4.803,3.179,175,4.462,4.978,134.1575,0.144,52.38,60.27,33.88,35.74
"2017-05-02 10:00:00",286249,0.556,327,8.26,53.51,941.9258,0,871.4791,0,-4.372,3.173,180,4.472,4.946,138.2119,0.147,52.32,60.33,33.87,35.75
"2017-05-02 10:10:00",286250,0.812,0.9,8.58,50.46,990.9659,0,871.6229,0,-4.405,3.174,188,4.478,4.909,150.516,0.152,52.38,60.27,33.88,35.74
"2017-05-02 10:20:00",286251,0.605,354.7,9.14,51.28,1023.419,0,871.6631,0,-4.44,3.172,189,4.449,4.885,160.2433,0.157,52.32,60.33,33.87,35.75
"2017-05-02 10:30:00",286252,0.704,334,9.74,52.14,1036.806,0,871.8112,0,-4.293,3.165,185,4.433,4.873,166.5796,0.161,52.32,60.27,33.87,35.74
"2017-05-02 10:40:00",286253,0.65,23.35,10.66,49.71,1056.062,0,871.863,0,-5.34,3.169,192,4.496,4.87,172.8019,0.164,52.32,60.33,33.87,35.75
"2017-05-02 10:50:00",286254,0.493,41.8,10.9,49.83,1073.88,0,871.8627,0,-4.679,3.163,183,4.522,4.868,177.8056,0.166,52.32,60.27,33.87,35.74
"2017-05-02 11:00:00",286255,0.559,289.1,10.82,48.44,1071.298,0,871.8733,0,-4.845,3.168,176,4.596,4.809,179.8056,0.168,52.32,60.27,33.87,35.74
"2017-05-02 11:10:00",286256,0.652,312.4,10.6,47.18,1056.427,0,871.9828,0,-3.564,3.154,194,4.65,4.804,181.0709,0.171,52.32,60.27,33.87,35.74
"2017-05-02 11:20:00",286257,0.523,311.6,10.85,46.89,1079.568,0,872.046,0,-4.226,3.16,190,4.715,4.776,188.833,0.175,52.32,60.27,33.87,35.74
"2017-05-02 11:30:00",286258,0.574,23.26,11.15,45.59,1065.027,0,872.0922,0,-3.859,3.154,193,4.792,4.741,187.7761,0.176,52.32,60.27,33.87,35.74
"2017-05-02 11:40:00",286259,0.703,1.291,11.58,44.24,1087.638,0,872.1154,0,-5.742,3.171,185,4.885,4.741,193.9168,0.178,52.27,60.27,33.85,35.74
"2017-05-02 11:50:00",286260,0.511,333.8,11.73,44.57,1077.514,0,872.0944,0,-3.96,3.149,188,4.983,4.741,193.5266,0.18,52.27,60.27,33.85,35.74
"2017-05-02 12:00:00",286261,0.501,345.3,12.15,42.28,1040.141,0,871.9659,0,-4.35,3.154,188,5.06,4.741,187.0449,0.18,52.32,60.27,33.87,35.74
"2017-05-02 12:10:00",286262,0.503,345.2,12.13,41.38,1045.387,0,871.8627,0,-5.675,3.166,184,5.147,4.746,189.4581,0.181,52.32,60.27,33.87,35.74
"2017-05-02 12:20:00",286263,0.574,298.1,12.47,40.12,1052.026,0,871.8627,0,-4.554,3.156,191,5.249,4.746,190.9734,0.182,52.32,60.27,33.87,35.74
"2017-05-02 12:30:00",286264,0.445,279,12.58,41.37,1060.069,0,871.8733,0,-4.126,3.148,194,5.366,4.739,193.6971,0.183,52.27,60.27,33.85,35.74
"2017-05-02 12:40:00",286265,0.633,326.7,12.76,38.61,1051.001,0,871.8691,0,-5.047,3.157,195,5.433,4.739,192.5644,0.183,52.27,60.27,33.85,35.74
"2017-05-02 12:50:00",286266,0.551,300.3,12.67,38.24,1037.729,0,871.8733,0,-6.166,3.166,212,5.559,4.726,191.5643,0.185,52.27,60.27,33.85,35.74
"2017-05-02 13:00:00",286267,0.719,310.9,12.99,36.69,1025.989,0,871.8627,0,-3.474,3.139,192,5.656,4.727,188.5337,0.184,52.27,60.27,33.85,35.74
"2017-05-02 13:10:00",286268,0.474,282,13.33,37.21,1008.678,0,871.8627,0,-4.229,3.144,186,5.744,4.714,185.1243,0.184,52.27,60.27,33.85,35.74
"2017-05-02 13:20:00",286269,0.901,341.5,13.25,35.22,990.7585,0,871.848,0,-5.76,3.163,196,5.859,4.695,180.2223,0.182,52.27,60.27,33.85,35.74
"2017-05-02 13:30:00",286270,0.768,313.2,13.13,34.5,967.6445,0,871.7891,0,-4.835,3.153,183,5.973,4.69,175.7825,0.182,52.21,60.27,33.84,35.74
"2017-05-02 13:40:00",286271,0.701,280.7,13.44,35.37,946.2474,0,871.6227,0,-3.971,3.141,197,6.068,4.703,169.5432,0.179,52.21,60.27,33.84,35.74
"2017-05-02 13:50:00",286272,0.682,290.5,13.87,34.45,918.9767,0,871.6311,0,-4.454,3.145,196,6.197,4.698,159.4059,0.173,52.21,60.27,33.84,35.74
"2017-05-02 14:00:00",286273,0.392,293.6,13.98,34,889.3367,0,871.6227,0,-5.016,3.15,193,6.318,4.699,145.5484,0.164,52.16,60.27,33.83,35.74
"2017-05-02 14:10:00",286274,0.646,333.6,13.85,31.87,866.2305,0,871.6101,0,-4.561,3.147,186,6.395,4.693,133.5018,0.154,52.21,60.27,33.84,35.74
"2017-05-02 14:20:00",286275,0.71,330.4,13.69,31.25,838.9323,0,871.5785,0,-4.108,3.144,200,6.493,4.694,125.1676,0.149,52.21,60.27,33.84,35.74
"2017-05-02 14:30:00",286276,0.628,296,13.26,32.52,807.976,0,871.5175,0,-3.679,3.141,185,6.623,4.689,115.0454,0.142,52.16,60.27,33.83,35.74
"2017-05-02 14:40:00",286277,0.44,172.6,13.97,31.79,778.3675,0,871.3595,0,-3.496,3.134,186,6.709,4.641,101.1577,0.13,52.16,60.21,33.83,35.73
"2017-05-02 14:50:00",286278,0.627,293.9,14.01,31.03,736.9407,0,871.3574,0,-4.572,3.149,197,6.822,4.697,83.41352,0.113,52.16,60.21,33.83,35.73
"2017-05-02 15:00:00",286279,0.532,265.7,13.5,31.42,678.2069,0,871.3574,0,-4.21,3.145,184,6.9,4.698,63.01757,0.093,52.1,60.21,33.81,35.73
"2017-05-02 15:10:00",286280,0.583,295.8,13.49,30.15,514.1695,0,871.3574,0,-4.137,3.145,189,7.025,4.698,42.73148,0.083,52.1,60.21,33.81,35.73
"2017-05-02 15:20:00",286281,0.308,256.2,13.76,30.33,158.9691,0,871.3574,0,-4.151,3.143,224,7.081,4.711,29.23773,0.197,52.16,60.27,33.83,35.74
"2017-05-02 15:30:00",286282,0.241,204.3,13.58,29.21,98.04686,0,871.3827,0,-3.825,3.141,188,7.164,4.778,23.04394,0.235,52.1,60.21,33.81,35.73
"2017-05-02 15:40:00",286283,0.457,279.4,13.45,27.54,90.58972,0,871.5722,0,-4.191,3.146,205,7.25,4.781,18.91853,0.209,52.1,60.27,33.81,35.74
"2017-05-02 15:50:00",286284,0.434,245.8,13.48,28.06,82.21718,0,871.5645,0,-4.772,3.15,200,7.339,4.784,15.89173,0.193,52.1,60.27,33.81,35.74
"2017-05-02 16:00:00",286285,0.402,283,13.49,28.15,76.28844,0,871.5912,0,-5.105,3.155,184,7.421,4.802,13.8089,0.181,52.05,60.21,33.8,35.73
"2017-05-02 16:10:00",286286,0.502,232.6,13.17,28.27,70.61888,0,871.6202,0,-5.355,3.158,195,7.53,4.863,12.05244,0.171,52.05,60.21,33.8,35.73
"2017-05-02 16:20:00",286287,0.314,220.4,13.41,28.94,65.66936,0,871.6756,0,-5.073,3.153,195,7.617,4.887,10.90157,0.166,52.05,60.27,33.8,35.74
"2017-05-02 16:30:00",286288,0.468,248.2,13.37,29.06,60.7168,0,871.6859,0,-4.63,3.151,195,7.683,4.896,9.553092,0.157,52.05,60.27,33.8,35.74
"2017-05-02 16:40:00",286289,0.297,252.9,13.17,31.88,55.92726,0,871.6853,0,-5.353,3.159,195,7.742,4.943,8.18152,0.146,51.99,60.27,33.79,35.74
"2017-05-02 16:50:00",286290,0.282,195.3,12.94,35.09,51.02669,0,871.701,0,-5.1,3.157,197,7.772,4.988,7.052311,0.138,52.05,60.27,33.8,35.74
"2017-05-02 17:00:00",286291,0.251,212.4,12.8,38.97,49.71804,0,871.7075,0,-5.002,3.157,172,7.781,5.041,6.453583,0.13,51.99,60.27,33.79,35.74
"2017-05-02 17:10:00",286292,0.214,169.9,12.64,41.25,46.56993,0,871.7454,0,-4.957,3.158,186,7.82,5.017,6.400534,0.137,51.99,60.27,33.79,35.74
"2017-05-02 17:20:00",286293,0.114,188.8,12.38,42.61,42.23876,0,871.718,0,-4.834,3.158,188,7.832,5.003,5.756312,0.136,51.99,60.27,33.79,35.74
"2017-05-02 17:30:00",286294,0.208,189.9,12.1,43.55,40.54873,0,871.9118,0,-4.692,3.159,184,7.878,5.003,5.52894,0.136,51.94,60.21,33.77,35.73
"2017-05-02 17:40:00",286295,0.041,202.4,11.82,42.97,33.83581,0,871.9561,0,-4.394,3.158,188,7.891,5.034,4.517133,0.133,51.94,60.21,33.77,35.73
"2017-05-02 17:50:00",286296,0.163,132.2,11.4,43.62,29.54001,0,872.1097,0,-4.323,3.159,189,7.897,5.17,3.925964,0.133,51.94,60.21,33.77,35.73
"2017-05-02 18:00:00",286297,0.008,140,11.03,44.94,26.71021,0,872.1097,0,-4.257,3.161,176,7.867,5.174,3.660697,0.137,51.94,60.21,33.77,35.73
"2017-05-02 18:10:00",286298,0.189,210.1,10.4,45.49,16.38928,0,872.1393,0,-4.369,3.165,179,7.853,5.173,1.800032,0.109,51.94,60.21,33.77,35.73
"2017-05-02 18:20:00",286299,0.067,209.9,10.13,45.54,9.754963,0,872.1856,0,-4.116,3.163,189,7.814,5.172,1.208864,0.125,51.94,60.21,33.77,35.73
"2017-05-02 18:30:00",286300,0.024,203.2,9.91,46.38,4.173961,0,872.2088,0,-4.43,3.169,186,7.816,5.205,0.3941123,0.072,51.94,60.21,33.77,35.73
"2017-05-02 18:40:00",286301,0.002,186.4,9.23,52.34,0.07860567,0,872.2088,0,-4.334,3.17,193,7.846,5.229,0,0,51.88,60.15,33.76,35.71
"2017-05-02 18:50:00",286302,0.202,180.6,8.73,55.98,0,0,872.3036,0,-4.803,3.179,176,7.845,5.252,0,0,51.94,60.21,33.77,35.73
"2017-05-02 19:00:00",286303,0.185,161.5,8.16,58.4,0,0,872.4573,0,-4.518,3.179,189,7.799,5.268,0,0,51.94,60.15,33.77,35.71
"2017-05-02 19:10:00",286304,0.303,161.5,8.15,56.37,0,0,872.4658,0,-4.79,3.184,187,7.804,5.293,0,0,51.88,60.15,33.76,35.71
"2017-05-02 19:20:00",286305,0.402,184,7.428,60.95,0,0,872.6174,0,-4.881,3.185,188,7.789,5.321,0,0,51.88,60.15,33.76,35.71
"2017-05-02 19:30:00",286306,0.203,178.5,7.341,60.73,0,0,872.7795,0,-4.458,3.181,177,7.742,5.368,0,0,51.94,60.15,33.77,35.71
"2017-05-02 19:40:00",286307,0.076,264.3,8.15,54.33,0,0,873.0584,0,-4.47,3.174,177,7.776,5.408,0.663388,0,51.88,60.15,33.76,35.71
"2017-05-02 19:50:00",286308,0.241,27.83,9,50.07,0,0,873.3845,0,-4.828,3.178,191,7.778,5.401,1.072801,0,51.88,60.15,33.76,35.71
"2017-05-02 20:00:00",286309,0.188,121,7.747,58.03,0,0,873.5264,0,-4.769,3.186,186,7.688,5.437,0,0,51.82,60.15,33.75,35.71
"2017-05-02 20:10:00",286310,0.008,100.2,7.24,59.77,0,0,873.5463,0,-4.691,3.184,193,7.71,5.437,0,0,51.82,60.15,33.75,35.71
"2017-05-02 20:20:00",286311,0.152,100,7.353,58.64,0,0,873.5868,0,-4.565,3.183,193,7.635,5.476,0.03032669,0,51.88,60.09,33.76,35.7
"2017-05-02 20:30:00",286312,0.129,88.8,7.633,56.13,0,0,873.7474,0,-4.559,3.18,194,7.609,5.523,0.3449661,0,51.82,60.09,33.75,35.7
"2017-05-02 20:40:00",286313,0.012,88.3,7.786,55.01,0,0,873.8482,0,-4.917,3.185,187,7.611,5.518,0.2729402,0,51.82,60.09,33.75,35.7
"2017-05-02 20:50:00",286314,0.187,308.7,7.851,53.95,0,0,874.072,0,-5.013,3.183,190,7.519,5.528,0.4586912,0,51.82,60.09,33.75,35.7
"2017-05-02 21:00:00",286315,0.367,316,8.29,51.86,0,0,874.0721,0,-5.063,3.183,171,7.499,5.552,0.4662729,0,51.82,60.09,33.75,35.7
"2017-05-02 21:10:00",286316,0.086,193.5,7.363,57.64,0,0,874.0721,0,-5.431,3.195,191,7.47,5.527,0.007581673,0,51.88,60.09,33.76,35.7
"2017-05-02 21:20:00",286317,0.065,179.4,6.546,61.2,0,0,874.0847,0,-4.824,3.189,193,7.438,5.541,0,0,51.82,60.09,33.75,35.7
"2017-05-02 21:30:00",286318,0.153,182.9,6.372,62.47,0,0,874.0931,0,-4.88,3.194,190,7.478,5.595,0.007581673,0,51.88,60.09,33.76,35.7
"2017-05-02 21:40:00",286319,0.067,173.4,6.151,62.77,0,0,874.2575,0,-4.651,3.19,192,7.345,5.61,0.003790837,0,51.82,60.03,33.75,35.69
"2017-05-02 21:50:00",286320,0.08,96.8,6.518,61.04,0,0,874.2364,0,-5.46,3.199,193,7.376,5.615,0.2160777,0,51.82,60.03,33.75,35.69
"2017-05-02 22:00:00",286321,0.27,177.6,5.597,66.19,0,0,874.2449,0,-4.883,3.198,196,7.278,5.653,0,0,51.82,60.03,33.75,35.69
"2017-05-02 22:10:00",286322,0.121,287.1,5.896,64.54,0,0,874.325,0,-4.42,3.186,186,7.327,5.676,0.3298028,0,51.82,60.03,33.75,35.69
"2017-05-02 22:20:00",286323,0.099,292.1,6.855,61.47,0,0,874.325,0,-5.228,3.192,188,7.225,5.655,0.924966,0,51.82,60.03,33.75,35.69
"2017-05-02 22:30:00",286324,0.165,187.5,5.762,66.1,0,0,874.3186,0,-5.039,3.202,192,7.199,5.658,0.1099357,0,51.88,60.03,33.76,35.69
"2017-05-02 22:40:00",286325,0.092,189.1,5.18,68.72,0,0,874.091,0,-4.811,3.194,189,7.152,5.665,0.1326851,0,51.88,60.09,33.76,35.7
"2017-05-02 22:50:00",286326,0.076,187.1,5.849,66.01,0,0,874.1058,0,-5.303,3.203,194,7.143,5.693,0.382902,0,51.88,60.03,33.76,35.69
"2017-05-02 23:00:00",286327,0.119,184.9,5.119,69.11,0,0,874.2469,0,-5.055,3.201,180,7.182,5.735,0,0,51.82,60.09,33.75,35.7
"2017-05-02 23:10:00",286328,0.166,12.36,5.564,67.93,0,0,874.4703,0,-4.857,3.194,185,7.083,5.755,0.5649233,0,51.88,60.03,33.76,35.69
"2017-05-02 23:20:00",286329,0.302,119.4,5.41,70.28,0,0,874.5967,0,-4.974,3.201,191,7.127,5.792,0.2919502,0,51.82,60.03,33.75,35.69
"2017-05-02 23:30:00",286330,0.472,105.9,5.247,75.71,0,0,874.8263,0,-5.028,3.2,189,7.015,5.83,0.09100576,0,51.88,59.97,33.76,35.67
"2017-05-02 23:40:00",286331,0.494,115.6,5.207,79.31,0,0,874.9308,0,-5.234,3.202,178,7.064,5.841,0.03791996,0,51.88,60.03,33.76,35.69
"2017-05-02 23:50:00",286332,0.335,139.2,5.309,82.4,0,0,875.1,0,-5.236,3.201,196,6.997,5.852,0.1403062,0,51.88,60.03,33.76,35.69
